Location: ????????
(56.1167°N, 38.6333°E)
Time: 12:00:19
(UTC+00:00)

Cosmos 2034 Rocket - Pass Details

Date: 18 November 2025
Orbit: 958 x 998 km, 82.9° (Epoch: 10 December)

Event Time Altitude Azimuth Distance (km) Brightness Sun altitude
Rises 16:12:38 0° 188° (S) 3,647 7.1 -24.6°
Reaches altitude 10° 16:15:07 10° 189° (S) 2,709 6.4 -24.9°
Maximum altitude 16:21:20 89° 100° (E) 986 3.9 -25.8°
Drops below altitude 10° 16:27:41 10° 12° (NNE) 2,756 6.3 -26.7°
Sets 16:30:13 0° 12° (NNE) 3,714 7.0 -27.0°
